Eugene, OR

6:28 AM PST on November 20, 2019 (GMT -0800)
Mahlon Sweet

Weather History for KEUG - September, 2019

Change the Weather History Date:

Friday, September 20, 2019

  Actual Average Record
Temperature  
Mean Temperature 64 °F 61 °F  
Max Temperature 73 °F 76 °F 94 °F (1952)
Min Temperature 54 °F 46 °F 35 °F (1947)
Degree Days  
Heating Degree Days 1 5  
Month to date heating degree days 37 60  
Since 1 July heating degree days 49 127  
Cooling Degree Days 0 1  
Month to date cooling degree days 43 27  
Year to date cooling degree days 351 235  
Growing Degree Days 14 (Base 50)    
Moisture  
Dew Point 55 °F    
Average Humidity 73    
Maximum Humidity 93    
Minimum Humidity 53    
Precipitation  
Precipitation 0.00 in 0.04 in 0.51 in (1970)
Month to date precipitation 4.04 0.76  
Year to date precipitation 27.25 26.77  
Sea Level Pressure  
Sea Level Pressure 30.13 in    
Wind  
Wind Speed 3 mph (South)    
Max Wind Speed 7 mph    
Max Gust Speed 9 mph    
Visibility 10 miles    
Events      
T = Trace of Precipitation, MM = Missing Value Source: NWS Daily Summary

Daily Weather History Graph

Daily Weather History Graph

Search for Another Location

Airport or City:

Astronomy

Sep. 20, 2019 Rise Set
Actual Time 6:57 AM PDT 7:14 PM PDT
Civil Twilight 6:28 AM PDT 7:43 PM PDT
Nautical Twilight 5:54 AM PDT 8:17 PM PDT
Astronomical Twilight 5:19 AM PDT 8:51 PM PDT
Moon 10:55 PM PDT 1:20 PM PDT
Length of Visible Light 13h 14m
Length of Day
12h 16m
Waning Gibbous, 64% of the Moon is Illuminated
Sep 20
Waning Gibbous
Sep 21
Last Quarter
Sep 28
New
Oct 5
First Quarter
Oct 13
Full

Hourly Weather History & Observations

Time (PDT) Temp. Dew Point Humidity Pressure Visibility Wind Dir Wind Speed Gust Speed Precip Events Conditions
12:54 AM 59.0 °F 55.9 °F 90% 30.11 in 10.0 mi Calm Calm - N/A   Overcast
1:54 AM 57.9 °F 55.9 °F 93% 30.11 in 10.0 mi SSW 4.6 mph - N/A   Overcast
2:54 AM 57.0 °F 55.0 °F 93% 30.11 in 10.0 mi South 3.5 mph - N/A   Overcast
3:09 AM 57.0 °F 54.0 °F 89% 30.11 in 10.0 mi South 4.6 mph - N/A   Overcast
3:31 AM 57.0 °F 54.0 °F 89% 30.11 in 10.0 mi South 4.6 mph - N/A   Overcast
3:54 AM 55.9 °F 53.1 °F 90% 30.11 in 10.0 mi SSE 4.6 mph - N/A   Scattered Clouds
4:54 AM 55.9 °F 54.0 °F 93% 30.10 in 10.0 mi South 3.5 mph - N/A   Overcast
5:54 AM 55.9 °F 54.0 °F 93% 30.11 in 10.0 mi SSE 3.5 mph - N/A   Mostly Cloudy
6:54 AM 57.0 °F 54.0 °F 89% 30.11 in 10.0 mi South 4.6 mph - N/A   Overcast
7:54 AM 57.0 °F 54.0 °F 89% 30.12 in 10.0 mi South 3.5 mph - N/A   Overcast
8:54 AM 57.9 °F 54.0 °F 87% 30.14 in 10.0 mi South 4.6 mph - N/A   Overcast
9:54 AM 60.1 °F 55.0 °F 83% 30.14 in 10.0 mi South 4.6 mph - N/A   Mostly Cloudy
10:54 AM 63.0 °F 55.9 °F 78% 30.14 in 10.0 mi SSW 4.6 mph - N/A   Mostly Cloudy
11:54 AM 66.9 °F 54.0 °F 63% 30.14 in 10.0 mi West 5.8 mph - N/A   Mostly Cloudy
12:54 PM 69.1 °F 54.0 °F 58% 30.14 in 10.0 mi Calm Calm - N/A   Mostly Cloudy
1:54 PM 68.0 °F 53.1 °F 59% 30.14 in 10.0 mi Calm Calm - N/A   Mostly Cloudy
2:54 PM 70.0 °F 53.1 °F 55% 30.14 in 10.0 mi SSE 3.5 mph - N/A   Mostly Cloudy
3:54 PM 71.1 °F 54.0 °F 55% 30.13 in 10.0 mi Calm Calm - N/A   Mostly Cloudy
4:54 PM 71.1 °F 54.0 °F 55% 30.13 in 10.0 mi Calm Calm - N/A   Mostly Cloudy
5:54 PM 69.1 °F 55.0 °F 61% 30.13 in 10.0 mi West 3.5 mph - N/A   Mostly Cloudy
6:54 PM 68.0 °F 55.9 °F 65% 30.12 in 10.0 mi WSW 3.5 mph - N/A   Mostly Cloudy
7:54 PM 64.9 °F 57.0 °F 75% 30.13 in 10.0 mi West 6.9 mph - N/A   Mostly Cloudy
8:54 PM 59.0 °F 55.9 °F 90% 30.13 in 10.0 mi Calm Calm - N/A   Mostly Cloudy
9:54 PM 59.0 °F 55.0 °F 87% 30.14 in 10.0 mi Calm Calm - N/A   Partly Cloudy
10:54 PM 57.0 °F 54.0 °F 89% 30.15 in 10.0 mi SE 3.5 mph - N/A   Partly Cloudy
11:54 PM 57.0 °F 54.0 °F 89% 30.16 in 10.0 mi SSE 3.5 mph - N/A   Clear